Tracking 30072 objects as of 15-Jan-2025
HD Live streaming from Space Station
objects crossing your sky now

ARIANE 44L DEB

Track ARIANE 44L DEB now!


NORAD ID: 24741
Int'l Code: 1991-003H
Perigee: 699.6 km
Apogee: 30,640.4 km
Inclination: 6.9 °
Period: 542.8 minutes
Semi major axis: 22040 km
RCS: 0.2921 m2 (medium)
Launch date: January 15, 1991
Source: France (FR)
Launch site: FRENCH GUIANA (FRGUI)

Note: This is SATELLITE DEBRIS
Your satellite tracking list
Your tracking list is empty




NASA's NSSDC Master Catalog

Two Line Element Set (TLE):
1 24741U 91003H   25014.22715031 -.00000252  00000-0 -20122-2 0  9994
2 24741   6.8518  52.5876 6792077 113.0243 353.6855  2.65311638185951
Source of the keplerian elements: AFSPC